Voltar ao catálogo

COSMOS 2617

AtivoMilitarSSO
NORAD 68828·PAYLOAD·🇷🇺 Russia

Lançado Apr 23, 2026 de Plesetsk Cosmodrome

Loading…

Próximas Passagens (próximas 24 horas)

TLE

AtualizadoSource: Space-Track

Época: Sep 14, 2026, 17:46 UTC

1 68828U 26090C   26257.74039977  .00010865  18660-5  45395-4 0  9993
2 68828  96.6282 172.8537 0015355  50.2441 310.0182 15.86456277 22858

Acompanhe COSMOS 2617 em tempo real com AllMySat

Download on the App Store